Flag for Finland Weather past 2 weeks in Jakobstad, Finland

Now
27 °F

Light snow. Mostly cloudy.


Feels Like: 27 °F
Forecast: 27 / 30 °F
Wind: No wind

Location: Kruunupyy

Current Time: Dec 17, 2014 at 10:09:18 PM

Latest Report: Dec 17, 2014 at 9:20 PM


Visibility: 4 mi

Pressure: 29.30 "Hg

Humidity: 100%

Dew point: 27 °F

Location of JakobstadLocation

Historic Weather in Jakobstad — Graph

°F

Jakobstad temperature yesterday

Maximum temperature yesterday: 36 °F (at 12:50 AM)
Minimum temperature yesterday: 32 °F (at 11:50 AM)
Average temperature yesterday: 33 °F

Past Weeks' High & Low Weather Summary

 TemperatureHumidityPressure
High43 °F (Dec 3, 5:50 PM)100% (Dec 2, 10:20 PM)30.07 "Hg (Dec 2, 10:20 PM)
Low21 °F (Dec 17, 8:50 AM)75% (Dec 10, 12:20 PM)29.03 "Hg (Dec 13, 6:50 AM)
Average35 °F93%29.49 "Hg
* Reported Dec 2 8:20 PM — Dec 17 8:50 PM, Jakobstad, Weather by CustomWeather, © 2014

Note: Actual official high and low records may vary slightly from our data, if they occured in-between our weather recording intervals... More about our weather records

Advertising

Jakobstad weather history for previous 24 hours

 ConditionsComfort  
Time TempWeatherWind HumidityBarometerVisibility
8:50 PM
Dec 17
27 °FLight snow. Partly cloudy.No wind100%29.30 "Hg4 mi
8:20 PM28 °FLight snow. Overcast.1 mph93%29.30 "Hg3 mi
7:50 PM28 °FLight snow. Ice fog.2 mph100%29.30 "Hg1 mi
7:20 PM28 °FLight snow. Mostly cloudy.2 mph100%29.30 "Hg1 mi
6:50 PM28 °FSprinkles. Partly cloudy.3 mph100%29.27 "Hg2 mi
6:20 PM28 °FMostly cloudy.3 mph93%29.27 "HgN/A
5:50 PM27 °FPartly cloudy.3 mph100%29.27 "Hg5 mi
5:20 PM27 °FMostly cloudy.3 mph100%29.27 "Hg4 mi
4:50 PM27 °FIce fog.3 mph100%29.27 "Hg3 mi
4:20 PM27 °FIce fog.2 mph100%29.27 "Hg2 mi
3:50 PM27 °FIce fog.5 mph100%29.27 "Hg1 mi
3:20 PM27 °FLight freezing rain. Ice fog.3 mph100%29.27 "Hg1 mi
2:50 PM28 °FIce fog.2 mph93%29.27 "Hg1 mi
2:20 PM28 °FLight freezing rain. Low clouds.3 mph93%29.27 "Hg1 mi
2:02 PM28 °FLight freezing rain. Low clouds.3 mph100%29.27 "Hg1 mi
1:35 PM28 °FLight freezing rain. Partly sunny.3 mph93%29.27 "Hg1 mi
1:20 PM27 °FIce fog.3 mph100%29.27 "Hg1 mi
12:50 PM27 °FIce fog.2 mph100%29.27 "Hg1 mi
12:20 PM27 °FIce fog.3 mph100%29.27 "Hg1 mi
11:50 AM27 °FIce fog.3 mph100%29.27 "Hg0 mi
11:20 AM27 °FIce fog.3 mph100%29.27 "Hg1 mi
10:50 AM27 °FIce fog.3 mph100%29.30 "Hg1 mi
10:20 AM27 °FIce fog.5 mph100%29.27 "Hg0 mi
9:50 AM27 °FIce fog.3 mph100%29.30 "Hg0 mi
9:20 AM27 °FIce fog.5 mph100%29.27 "Hg0 mi
8:50 AM21 °FIce fog.2 mph100%29.27 "Hg0 mi
8:20 AM27 °FFog.2 mph100%29.27 "Hg0 mi
7:50 AM27 °FPartly cloudy.3 mph100%29.27 "HgN/A
7:20 AM27 °FFog.3 mph100%29.27 "HgN/A
6:50 AM25 °FFog.5 mph100%29.27 "HgN/A
6:20 AM28 °FFog.3 mph100%29.30 "HgN/A
5:50 AM30 °FPassing clouds.5 mph100%29.30 "HgN/A
5:20 AM30 °FPassing clouds.5 mph100%29.30 "HgN/A
5:00 AM32 °FPassing clouds.5 mph100%29.30 "HgN/A
4:20 AM32 °FMostly cloudy.6 mph100%29.30 "HgN/A
3:50 AM32 °FPartly cloudy.8 mph100%29.30 "HgN/A
3:20 AM32 °FMostly cloudy.6 mph100%29.30 "HgN/A
2:50 AM32 °FOvercast.6 mph100%29.30 "HgN/A
2:20 AM32 °FPassing clouds.5 mph100%29.30 "Hg6 mi
1:50 AM32 °FLight snow. Ice fog.3 mph100%29.30 "Hg2 mi
1:20 AM32 °FLight snow. Partly cloudy.5 mph100%29.30 "Hg1 mi
12:50 AM32 °FLight snow. Overcast.6 mph100%29.30 "Hg1 mi
12:20 AM32 °FLight snow. Overcast.7 mph100%29.30 "Hg1 mi
11:50 PM
Dec 16
32 °FLight rain. Overcast.7 mph100%29.30 "Hg1 mi
11:20 PM32 °FLight rain. Overcast.7 mph100%29.30 "Hg1 mi
10:50 PM32 °FLight rain. Overcast.8 mph100%29.30 "Hg1 mi
10:20 PM32 °FRain. Mostly cloudy.8 mph100%29.30 "Hg1 mi
Weather by CustomWeather, © 2014

See weather overviewHow to use our weather pages